[TLELIST] Archives

 

[list_settings.list_name] Current TLEs

April 5th 2009 PDT

HST 1 20580U 90037B 09094.68789434 .00000366 00000-0 15446-4 0 3617 2 20580 028.4712 221.8812 0003940 244.1412 115.8778 15.00470867838801 ISS (ZARYA) 1 25544U 98067A 09094.67522720 .00009966 00000-0 79271-4 0 6147 2 25544 051.6422 323.6854 0009243 196.3308 280.5662 15.71915136594388 CXO 1 25867U 99040B 09092.41666667 .00000286 00000-0 10000-3 0 3109 2 25867 065.1211 071.7434 7375992 276.3680 353.6780 00.37798885 4726 ____________________________________________________________________ These 2-Line ...Continue Reading

[list_settings.list_name] Current TLEs

April 5th 2009 PDT

HST 1 20580U 90037B 09093.55714045 .00000357 00000-0 14722-4 0 3603 2 20580 028.4712 229.2549 0003936 232.1793 127.8441 15.00470357838639 ISS (ZARYA) 1 25544U 98067A 09094.17161279 .00010115 00000-0 80417-4 0 6096 2 25544 051.6420 326.2650 0009244 194.4404 310.6463 15.71904921594302 CXO 1 25867U 99040B 09092.41666667 .00000286 00000-0 10000-3 0 3109 2 25867 065.1211 071.7434 7375992 276.3680 353.6780 00.37798885 4726 ____________________________________________________________________ These 2-Line ...Continue Reading

[list_settings.list_name] Current TLEs

April 4th 2009 PDT

HST 1 20580U 90037B 09091.76123720 +.00000341 +00000-0 +13464-4 0 03603 2 20580 028.4712 240.9677 0004013 213.8753 146.1583 15.00469555838369 ISS (ZARYA) 1 25544U 98067A 09093.14278553 .00010801 00000-0 85614-4 0 6003 2 25544 051.6418 331.5313 0009269 190.4211 248.8076 15.71885504594142 CXO 1 25867U 99040B 09092.41666667 .00000286 00000-0 10000-3 0 3109 2 25867 065.1211 071.7434 7375992 276.3680 353.6780 00.37798885 4726 ____________________________________________________________________ These 2-Line ...Continue Reading

[list_settings.list_name] Current TLEs

April 3rd 2009 PDT

HST 1 20580U 90037B 09091.56169261 .00000335 00000-0 13006-4 0 3594 2 20580 028.4712 242.2690 0004015 211.7715 148.2645 15.00469444838332 ISS (ZARYA) 1 25544U 98067A 09 92.49306250 .00012659 00000-0 94826-4 0 5957 2 25544 051.6415 334.8573 0009425 188.5186 171.6179 15.71874401594046 CXO 1 25867U 99040B 09092.41666667 .00000286 00000-0 10000-3 0 3109 2 25867 065.1211 071.7434 7375992 276.3680 353.6780 00.37798885 4726 ____________________________________________________________________ These 2-Line ...Continue Reading

[list_settings.list_name] Current TLEs

April 2nd 2009 PDT

HST 1 20580U 90037B 09089.76578982 .00000276 00000-0 84531-5 0 3582 2 20580 028.4707 253.9850 0003926 194.8489 165.1978 15.00468270838065 ISS (ZARYA) 1 25544U 98067A 09089.84530807 +.00010259 +00000-0 +81819-4 0 05759 2 25544 051.6417 348.4107 0009219 176.8582 310.5282 15.71809155593629 CXO 1 25867U 99040B 09089.79166667 +.00000330 +00000-0 +10000-3 0 03099 2 25867 065.1125 071.8205 7371295 276.4275 356.2333 00.37800229004718 ____________________________________________________________________ These 2-Line ...Continue Reading

[list_settings.list_name] Current TLEs

April 1st 2009 PDT

HST 1 20580U 90037B 09089.76578982 .00000276 00000-0 84531-5 0 3582 2 20580 028.4707 253.9850 0003926 194.8489 165.1978 15.00468270838065 ISS (ZARYA) 1 25544U 98067A 09088.88492473 +.00016406 +00000-0 +12801-3 0 05673 2 25544 051.6421 353.3248 0009509 173.1221 276.3061 15.71794491593470 CXO 1 25867U 99040B 09089.79166667 +.00000330 +00000-0 +10000-3 0 03099 2 25867 065.1125 071.8205 7371295 276.4275 356.2333 00.37800229004718 ____________________________________________________________________ These 2-Line ...Continue Reading

[list_settings.list_name] Current TLEs

March 31st 2009 PDT

HST 1 20580U 90037B 09087.83685511 +.00000254 +00000-0 +67272-5 0 03607 2 20580 028.4704 266.5664 0003927 175.9616 184.1006 15.00467713837779 ISS (ZARYA) 1 25544U 98067A 09088.69626985 .00016886 00000-0 13163-3 0 5662 2 25544 051.6424 354.2903 0009525 172.1564 289.0651 15.71790003593446 CXO 1 25867U 99040B 09087.12500000 +.00000423 +00000-0 +10000-3 0 03089 2 25867 065.0939 071.9357 7370020 276.4428 353.1863 00.37807921004703 ____________________________________________________________________ These 2-Line ...Continue Reading

[list_settings.list_name] Current TLEs

March 30th 2009 PDT

HST 1 20580U 90037B 09086.83912979 .00000430 00000-0 20377-4 0 3562 2 20580 028.4703 273.0737 0003970 164.7668 195.3178 15.00468854837628 ISS (ZARYA) 1 25544U 98067A 09088.19845794 .00023098 00000-0 17816-3 0 5626 2 25544 051.6433 356.8374 0009684 168.9552 353.5810 15.71793538593363 CXO 1 25867U 99040B 09087.12500000 +.00000423 +00000-0 +10000-3 0 03089 2 25867 065.0939 071.9357 7370020 276.4428 353.1863 00.37807921004703 ____________________________________________________________________ These 2-Line ...Continue Reading

[list_settings.list_name] Current TLEs

March 29th 2009 PDT

HST 1 20580U 90037B 09086.83912979 .00000430 00000-0 20377-4 0 3562 2 20580 028.4703 273.0737 0003970 164.7668 195.3178 15.00468854837628 ISS (ZARYA) 1 25544U 98067A 09086.84912205 .00025095 00000-0 19354-3 0 5514 2 25544 051.6421 003.7416 0009873 162.9174 279.5115 15.71739808593151 CXO 1 25867U 99040B 09087.12500000 +.00000423 +00000-0 +10000-3 0 03089 2 25867 065.0939 071.9357 7370020 276.4428 353.1863 00.37807921004703 ____________________________________________________________________ These 2-Line ...Continue Reading

[list_settings.list_name] Current TLEs

March 28th 2009 PDT

HST 1 20580U 90037B 09084.91019386 .00000326 00000-0 12306-4 0 3555 2 20580 028.4703 285.6516 0003922 142.8050 217.2803 15.00467226837330 ISS (ZARYA) 1 25544U 98067A 09086.15339359 .00025148 00000-0 19424-3 0 5473 2 25544 051.6422 007.3027 0009885 162.2196 300.9743 15.71702309593040 CXO 1 25867U 99040B 09084.50000000 +.00000413 +00000-0 +10000-3 0 03071 2 25867 065.0756 072.0431 7367192 276.4312 355.8907 00.37808666004696 ____________________________________________________________________ These 2-Line ...Continue Reading
  • This mailing list is a public mailing list - anyone may join or leave, at any time.
  • This mailing list is announce-only.

International Space Station (ISS) / Hubble Space Telescope (HST) / Chandra X-Ray Observatory Orbital Data via EMAIL

Privacy Policy:

Private list